Volver al catálogo

STARLINK-5974

ActivoComunicacionesSSO
NORAD 56344·PAYLOAD·🇺🇸 United States

Lanzado Apr 27, 2023 desde Vandenberg Space Force Base

Loading…

Próximos Pases (próximas 24 horas)

TLE

ActualizadoSource: CelesTrak SupGP

Época: Sep 15, 2026, 02:11 UTC

1 56344C 23058AD  26258.09145833 -.00051477  00000+0 -15981-2 0  2585
2 56344  97.2846 254.9048 0001551  86.7469 315.8524 15.33463318    10

Sigue STARLINK-5974 en tiempo real con AllMySat

Download on the App Store